This is the latest recevied weather packets stored in our database for station/object DB0ADS-6. If no packets are shown the sender has not sent any weather packets the latest 1 day(s).
| Time | Temp. | Humidity | Pressure | Rain* | Wind** | Luminosity | Snow |
|---|---|---|---|---|---|---|---|
| 1778000772 | 12.22° C | 92% | 1004.4 hPa | 3.3 mm | 0.89 m/s, 254° | - | - |
| 1778000470 | 12.22° C | 93% | 1004.3 hPa | 3.81 mm | 0.89 m/s, 296° | - | - |
| 1778000228 | 12.22° C | 92% | 1004.4 hPa | 4.57 mm | 0.89 m/s, 315° | - | - |
| 1777999866 | 12.22° C | 92% | 1004.4 hPa | 4.83 mm | 1.34 m/s, 311° | - | - |
| 1777999565 | 12.22° C | 91% | 1004.6 hPa | 5.08 mm | 1.34 m/s, 311° | - | - |
| 1777999263 | 12.22° C | 91% | 1004.7 hPa | 4.83 mm | 0.89 m/s, 315° | - | - |
| 1777998961 | 12.22° C | 90% | 1004.9 hPa | 4.57 mm | 0.89 m/s, 315° | - | - |
| 1777998659 | 12.22° C | 91% | 1005 hPa | 4.32 mm | 1.34 m/s, 309° | - | - |
| 1777998358 | 12.22° C | 91% | 1005.3 hPa | 4.57 mm | 1.34 m/s, 236° | - | - |
| 1777998056 | 12.22° C | 91% | 1005.5 hPa | 4.83 mm | 1.34 m/s, 225° | - | - |
| 1777997754 | 12.78° C | 90% | 1005.4 hPa | 4.83 mm | 2.24 m/s, 246° | - | - |
| 1777997452 | 12.78° C | 91% | 1005.4 hPa | 5.33 mm | 1.34 m/s, 221° | - | - |
| 1777997151 | 12.78° C | 90% | 1005.4 hPa | 4.83 mm | 2.24 m/s, 205° | - | - |
| 1777996850 | 12.78° C | 89% | 1005.5 hPa | 4.32 mm | 3.13 m/s, 195° | - | - |
| 1777996547 | 13.33° C | 88% | 1005.5 hPa | 3.56 mm | 3.58 m/s, 211° | - | - |
| 1777996245 | 13.33° C | 86% | 1005.3 hPa | 3.3 mm | 3.13 m/s, 240° | - | - |
| 1777995984 | 13.33° C | 85% | 1005 hPa | 3.05 mm | 2.68 m/s, 205° | - | - |
| 1777995642 | 13.33° C | 85% | 1004.6 hPa | 2.79 mm | 1.34 m/s, 240° | - | - |
| 1777995360 | 13.89° C | 83% | 1004.4 hPa | 2.79 mm | 1.34 m/s, 252° | - | - |
| 1777995038 | 14.44° C | 81% | 1004.2 hPa | 2.79 mm | 1.34 m/s, 270° | - | - |
| 1777994736 | 15° C | 77% | 1004.2 hPa | 2.03 mm | 1.34 m/s, 257° | - | - |
| 1777994455 | 16.11° C | 70% | 1004.2 hPa | 1.52 mm | 3.13 m/s, 224° | - | - |
| 1777994133 | 17.78° C | 64% | 1004 hPa | 1.02 mm | 2.24 m/s, 229° | - | - |
| 1777993831 | 18.33° C | 60% | 1003.7 hPa | 0 mm | 0.89 m/s, 262° | - | - |
| 1777993533 | 18.89° C | 58% | 1003.5 hPa | 0 mm | 0.89 m/s, 315° | - | - |
* Rain latest hour (hover to see other rain measurements)
** Current wind speed in m/s (hover to see current wind gust speed)